Weather History for KLHW - September, 2012

Change the Weather History Date:

Wednesday, September 5, 2012

  Actual Average (KSAV) Record (KSAV)
Temperature  
Mean Temperature 80 °F 79 °F  
Max Temperature 90 °F 88 °F 99 °F (1944)
Min Temperature 70 °F 70 °F 54 °F (1997)
Degree Days  
Heating Degree Days 0 0  
Month to date heating degree days 0  
Since 1 July heating degree days 0  
Cooling Degree Days 14 14  
Month to date cooling degree days 73  
Year to date cooling degree days 1980  
Growing Degree Days 30 (Base 50)    
Moisture  
Dew Point 72 °F    
Average Humidity 86    
Maximum Humidity 100    
Minimum Humidity 50    
Precipitation  
Precipitation 0.34 in 0.18 in 8.47 in (1950)
Month to date precipitation 0.90  
Year to date precipitation 35.27  
Sea Level Pressure  
Sea Level Pressure 29.94 in    
Wind  
Wind Speed 3 mph (NW)    
Max Wind Speed 14 mph    
Max Gust Speed -    
Visibility 8 miles    
Events Rain , Thunderstorm    
T = Trace of Precipitation, MM = Missing Value Source: NWS Daily Summary

Daily Weather History Graph

Daily Weather History Graph

Search for Another Location

Airport or City:

Trip Planner

Search our weather history database for the weather conditions in past years. The results will help you decide how hot, cold, wet, or windy it might be!

Date:

Astronomy

Sep. 05, 2012 Rise Set
Actual Time 7:04 AM EDT 7:44 PM EDT
Civil Twilight 6:39 AM EDT 8:09 PM EDT
Nautical Twilight 6:10 AM EDT 8:38 PM EDT
Astronomical Twilight 5:40 AM EDT 9:07 PM EDT
Moon 10:36 PM EDT (9/5) 11:44 AM EDT (9/5)
Length of Visible Light 13h 29m
Length of Day
12h 40m
Waning Gibbous, 76% of the Moon is Illuminated
Sep 5
Waning Gibbous
Sep 8
Last Quarter
Sep 15
New
Sep 22
First Quarter
Sep 29
Full

Hourly Weather History & Observations

Time (EDT) Temp. Heat Index Dew Point Humidity Pressure Visibility Wind Dir Wind Speed Gust Speed Precip Events Conditions
12:55 AM 74.1 °F - 73.2 °F 97% 29.96 in 10.0 mi Calm Calm - N/A   Clear
1:55 AM 73.8 °F - 72.7 °F 96% 29.95 in 10.0 mi Calm Calm - N/A   Scattered Clouds
2:55 AM 72.9 °F - 72.0 °F 97% 29.94 in 10.0 mi Calm Calm - N/A   Partly Cloudy
3:55 AM 72.5 °F - 71.8 °F 98% 29.94 in 10.0 mi Calm Calm - N/A   Partly Cloudy
4:55 AM 71.6 °F - 71.2 °F 99% 29.94 in 7.0 mi Calm Calm - N/A   Clear
5:55 AM 70.7 °F - 70.3 °F 99% 29.94 in 10.0 mi Calm Calm - N/A   Clear
6:55 AM 70.2 °F - 69.8 °F 99% 29.95 in 10.0 mi Calm Calm - N/A   Clear
7:55 AM 71.4 °F - 71.4 °F 100% 29.96 in 10.0 mi Calm Calm - N/A   Clear
8:55 AM 75.7 °F - 72.7 °F 90% 29.97 in 10.0 mi Calm Calm - N/A   Partly Cloudy
9:55 AM 79.2 °F - 71.6 °F 78% 29.98 in 10.0 mi Calm Calm - N/A   Clear
10:54 AM 84.2 °F 89.6 °F 71.6 °F 66% 29.98 in 10.0 mi WSW 5.8 mph - N/A   Partly Cloudy
10:55 AM 83.7 °F 88.3 °F 70.7 °F 65% 29.99 in 10.0 mi WSW 5.8 mph - N/A   Unknown
11:55 AM 86.0 °F 91.8 °F 71.6 °F 62% 29.98 in 10.0 mi WSW 3.5 mph - N/A   Partly Cloudy
12:55 PM 87.8 °F 92.6 °F 69.8 °F 55% 29.96 in 10.0 mi Calm Calm - N/A   Partly Cloudy
1:55 PM 88.0 °F 93.4 °F 70.3 °F 56% 29.96 in 10.0 mi Variable 5.8 mph - N/A   Mostly Cloudy
2:55 PM 88.2 °F 92.9 °F 69.6 °F 54% 29.93 in 10.0 mi South 6.9 mph - N/A   Partly Cloudy
3:55 PM 89.6 °F 93.9 °F 68.9 °F 50% 29.91 in 10.0 mi SW 3.5 mph - N/A   Partly Cloudy
4:55 PM 89.6 °F 97.2 °F 72.7 °F 57% 29.90 in 10.0 mi Variable 6.9 mph - N/A   Partly Cloudy
5:55 PM 86.9 °F 95.4 °F 74.1 °F 66% 29.90 in 10.0 mi SE 5.8 mph - N/A   Clear
6:55 PM 85.1 °F 93.3 °F 74.8 °F 71% 29.91 in 10.0 mi ESE 5.8 mph - N/A   Scattered Clouds
7:55 PM 81.7 °F 88.0 °F 75.0 °F 80% 29.92 in 10.0 mi West 6.9 mph - N/A   Scattered Clouds
8:04 PM 80.6 °F 84.6 °F 71.6 °F 74% 29.93 in 10.0 mi West 11.5 mph - N/A   Mostly Cloudy
8:07 PM 80.6 °F 83.9 °F 69.8 °F 70% 29.93 in 10.0 mi WNW 13.8 mph - N/A Rain Light Rain
8:23 PM 77.0 °F - 71.6 °F 83% 29.94 in 2.5 mi West 5.8 mph - N/A Rain Heavy Rain
8:25 PM 75.2 °F - 71.6 °F 89% 29.95 in 1.5 mi NW 4.6 mph - N/A Rain Heavy Rain
8:26 PM 75.2 °F - 71.6 °F 89% 29.94 in 1.2 mi Variable 3.5 mph - N/A Rain Heavy Rain
8:27 PM 75.2 °F - 71.6 °F 89% 29.94 in 1.0 mi North 4.6 mph - N/A Rain Heavy Rain
8:29 PM 75.2 °F - 71.6 °F 89% 29.94 in 1.0 mi North 6.9 mph - N/A Rain Heavy Rain
8:31 PM 75.2 °F - 71.6 °F 89% 29.94 in 1.0 mi North 8.1 mph - N/A Rain Heavy Rain
8:32 PM 75.2 °F - 71.6 °F 89% 29.94 in 1.2 mi North 8.1 mph - N/A Rain Heavy Rain
8:34 PM 75.2 °F - 71.6 °F 89% 29.94 in 1.5 mi NNE 6.9 mph - N/A Rain Heavy Rain
8:35 PM 75.2 °F - 71.6 °F 89% 29.94 in 2.0 mi NNE 6.9 mph - N/A Rain Heavy Rain
8:37 PM 75.2 °F - 71.6 °F 89% 29.94 in 3.0 mi ENE 8.1 mph - N/A Rain Heavy Rain
8:39 PM 75.2 °F - 73.4 °F 94% 29.94 in 4.0 mi Variable 4.6 mph - N/A Rain , Thunderstorm Heavy Thunderstorms and Rain
8:41 PM 75.2 °F - 73.4 °F 94% 29.94 in 4.0 mi Variable 3.5 mph - N/A Rain , Thunderstorm Thunderstorms and Rain
8:43 PM 75.2 °F - 73.4 °F 94% 29.94 in 4.0 mi Calm Calm - N/A Rain , Thunderstorm Thunderstorms and Rain
8:55 PM 75.9 °F - 74.3 °F 95% 29.94 in 9.0 mi ENE 3.5 mph - 0.34 in Rain , Thunderstorm Light Thunderstorms and Rain
9:09 PM 75.2 °F - 75.2 °F 100% 29.94 in 10.0 mi Calm Calm - N/A   Light Drizzle
9:18 PM 75.2 °F - 75.2 °F 100% 29.94 in 10.0 mi Calm Calm - N/A   Partly Cloudy
9:55 PM 75.6 °F - 75.0 °F 98% 29.94 in 10.0 mi Calm Calm - 0.00 in   Partly Cloudy
10:33 PM 75.2 °F - 75.2 °F 100% 29.94 in 9.0 mi Calm Calm - N/A   Clear
10:34 PM 75.2 °F - 75.2 °F 100% 29.94 in 9.0 mi Calm Calm - N/A   Clear
10:55 PM 75.0 °F - 74.5 °F 98% 29.95 in 9.0 mi Calm Calm - N/A   Clear
11:22 PM 75.2 °F - 75.2 °F 100% 29.96 in 8.0 mi Calm Calm - N/A   Partly Cloudy
11:47 PM 75.2 °F - 75.2 °F 100% 29.96 in 8.0 mi Calm Calm - N/A   Mostly Cloudy
11:55 PM 74.7 °F - 74.7 °F 100% 29.96 in 10.0 mi Calm Calm - N/A   Mostly Cloudy